| time (UTC) | temp C | wind direction | speed KPH | gust KPH | rain 1hr cm | rain 24hr cm | rain mn cm | humidity % | barometer mb |
| 20260906230515 | 37 | 158 | 1.6 | 6.4 | 0.00 | 0.00 | 0.00 | 42 | 1008.2 |
| 20260906225536 | 37 | 158 | 1.6 | 9.7 | 0.00 | 0.00 | 0.00 | 44 | 1008.3 |
| 20260906224536 | 37 | 180 | 1.6 | 6.4 | 0.00 | 0.00 | 0.00 | 43 | 1008.2 |
| 20260906223515 | 37 | 158 | 1.6 | 6.4 | 0.00 | 0.00 | 0.00 | 44 | 1008.3 |
| 20260906222535 | 37 | 158 | 3.2 | 8.0 | 0.00 | 0.00 | 0.00 | 43 | 1008.4 |
| 20260906221515 | 37 | 158 | 1.6 | 9.7 | 0.00 | 0.00 | 0.00 | 44 | 1008.4 |
| 20260906220516 | 37 | 158 | 1.6 | 8.0 | 0.00 | 0.00 | 0.00 | 44 | 1008.4 |
| 20260906215515 | 37 | 315 | 1.6 | 4.8 | 0.00 | 0.00 | 0.00 | 44 | 1008.4 |
| 20260906214515 | 37 | 315 | 1.6 | 4.8 | 0.00 | 0.00 | 0.00 | 43 | 1008.5 |
| 20260906214036 | 37 | 180 | 1.6 | 3.2 | 0.00 | 0.00 | 0.00 | 43 | 1008.4 |
| 20260906213015 | 37 | 180 | 1.6 | 4.8 | 0.00 | 0.00 | 0.00 | 43 | 1008.6 |
| 20260906212015 | 37 | 180 | 1.6 | 3.2 | 0.00 | 0.00 | 0.00 | 43 | 1008.7 |
| 20260906211015 | 38 | 180 | 3.2 | 6.4 | 0.00 | 0.00 | 0.00 | 42 | 1008.9 |
| 20260906210015 | 38 | 180 | 3.2 | 9.7 | 0.00 | 0.00 | 0.00 | 42 | 1009.1 |
| 20260906205015 | 38 | 135 | 1.6 | 4.8 | 0.00 | 0.00 | 0.00 | 43 | 1009.3 |
| 20260906204035 | 38 | 135 | 1.6 | 4.8 | 0.00 | 0.00 | 0.00 | 44 | 1009.4 |
| 20260906203015 | 37 | 113 | 1.6 | 4.8 | 0.00 | 0.00 | 0.00 | 45 | 1009.6 |
| 20260906202015 | 37 | 180 | 1.6 | 4.8 | 0.00 | 0.00 | 0.00 | 46 | 1009.7 |
| 20260906201015 | 37 | 338 | 1.6 | 6.4 | 0.00 | 0.00 | 0.00 | 45 | 1009.7 |
| 20260906200016 | 38 | 203 | 3.2 | 8.0 | 0.00 | 0.00 | 0.00 | 45 | 1009.8 |
| 20260906195015 | 37 | 203 | 1.6 | 8.0 | 0.00 | 0.00 | 0.00 | 46 | 1010.0 |
| 20260906194015 | 37 | 158 | 1.6 | 6.4 | 0.00 | 0.00 | 0.00 | 46 | 1010.0 |
| 20260906193015 | 37 | 135 | 1.6 | 4.8 | 0.00 | 0.00 | 0.00 | 47 | 1010.2 |
| 20260906192015 | 37 | 113 | 1.6 | 16.1 | 0.00 | 0.00 | 0.00 | 47 | 1010.2 |
| 20260906191015 | 37 | 135 | 3.2 | 9.7 | 0.00 | 0.00 | 0.00 | 48 | 1010.4 |
| 20260906190015 | 36 | 113 | 3.2 | 14.5 | 0.00 | 0.00 | 0.00 | 48 | 1010.5 |
| 20260906185015 | 37 | 113 | 1.6 | 6.4 | 0.00 | 0.00 | 0.00 | 47 | 1010.7 |
| 20260906184015 | 37 | 158 | 3.2 | 9.7 | 0.00 | 0.00 | 0.00 | 49 | 1010.7 |
| 20260906183015 | 37 | 135 | 1.6 | 8.0 | 0.00 | 0.00 | 0.00 | 49 | 1010.8 |
| 20260906182015 | 37 | 113 | 1.6 | 6.4 | 0.00 | 0.00 | 0.00 | 49 | 1011.0 |
| 20260906181015 | 36 | 158 | 1.6 | 8.0 | 0.00 | 0.00 | 0.00 | 49 | 1011.0 |
| 20260906180015 | 36 | 158 | 1.6 | 8.0 | 0.00 | 0.00 | 0.00 | 49 | 1011.2 |
| 20260906175015 | 36 | 158 | 1.6 | 8.0 | 0.00 | 0.00 | 0.00 | 50 | 1011.4 |
| 20260906174015 | 36 | 180 | 3.2 | 12.9 | 0.00 | 0.00 | 0.00 | 50 | 1011.5 |
| 20260906173016 | 36 | 180 | 1.6 | 6.4 | 0.00 | 0.00 | 0.00 | 52 | 1011.7 |
| 20260906172015 | 36 | 203 | 1.6 | 4.8 | 0.00 | 0.00 | 0.00 | 52 | 1011.8 |
| 20260906171015 | 35 | 203 | 1.6 | 4.8 | 0.00 | 0.00 | 0.00 | 53 | 1011.9 |
| 20260906170015 | 34 | 180 | 1.6 | 6.4 | 0.00 | 0.00 | 0.00 | 57 | 1011.9 |
| 20260906165015 | 33 | 203 | 3.2 | 12.9 | 0.00 | 0.00 | 0.00 | 58 | 1011.9 |
| 20260906164035 | 33 | 180 | 4.8 | 14.5 | 0.00 | 0.00 | 0.00 | 59 | 1012.0 |
| 20260906163015 | 33 | 135 | 1.6 | 4.8 | 0.00 | 0.00 | 0.00 | 61 | 1012.0 |
| 20260906162015 | 33 | 135 | 1.6 | 8.0 | 0.00 | 0.00 | 0.00 | 63 | 1012.0 |
| 20260906161035 | 33 | 225 | 1.6 | 8.0 | 0.00 | 0.00 | 0.00 | 63 | 1011.9 |
| 20260906160015 | 32 | 180 | 1.6 | 4.8 | 0.00 | 0.00 | 0.00 | 64 | 1011.9 |
| 20260906155035 | 32 | 180 | 1.6 | 4.8 | 0.00 | 0.00 | 0.00 | 64 | 1011.8 |
| 20260906154015 | 32 | 203 | 1.6 | 3.2 | 0.00 | 0.00 | 0.00 | 67 | 1011.8 |
| 20260906153015 | 32 | 0.0 | 3.2 | 0.00 | 0.00 | 0.00 | 68 | 1011.9 | |
| 20260906152015 | 31 | 0.0 | 3.2 | 0.00 | 0.00 | 0.00 | 68 | 1011.7 | |
| 20260906151015 | 31 | 0.0 | 1.6 | 0.00 | 0.00 | 0.00 | 72 | 1011.6 | |
| 20260906150035 | 30 | 0.0 | 3.2 | 0.00 | 0.00 | 0.00 | 74 | 1011.4 | |
| 20260906145015 | 30 | 180 | 1.6 | 4.8 | 0.00 | 0.00 | 0.00 | 75 | 1011.5 |
| 20260906144017 | 29 | 0.0 | 1.6 | 0.00 | 0.00 | 0.00 | 77 | 1011.5 | |
| 20260906143037 | 28 | 0.0 | 1.6 | 0.00 | 0.00 | 0.00 | 77 | 1011.6 | |
| 20260906142017 | 28 | 0.0 | 3.2 | 0.00 | 0.00 | 0.00 | 79 | 1011.7 | |
| 20260906141017 | 28 | 0.0 | 1.6 | 0.00 | 0.00 | 0.00 | 81 | 1011.7 | |
| 20260906140017 | 27 | 0.0 | 3.2 | 0.00 | 0.00 | 0.00 | 82 | 1011.5 | |
| 20260906135017 | 27 | 0.0 | 1.6 | 0.00 | 0.00 | 0.00 | 83 | 1011.5 | |
| 20260906134017 | 27 | 0.0 | 1.6 | 0.00 | 0.00 | 0.00 | 85 | 1011.5 | |
| 20260906133017 | 26 | 0.0 | 1.6 | 0.00 | 0.00 | 0.00 | 86 | 1011.5 | |
| 20260906132037 | 26 | 0.0 | 1.6 | 0.00 | 0.00 | 0.00 | 87 | 1011.6 | |
| 20260906131017 | 26 | 0.0 | 0.0 | 0.00 | 0.00 | 0.00 | 88 | 1011.6 | |
| 20260906130017 | 26 | 0.0 | 0.0 | 0.00 | 0.00 | 0.00 | 88 | 1011.4 | |
| 20260906125017 | 25 | 0.0 | 0.0 | 0.00 | 0.00 | 0.00 | 88 | 1011.4 | |
| 20260906124017 | 25 | 0.0 | 0.0 | 0.00 | 0.00 | 0.00 | 87 | 1011.3 | |
| 20260906123017 | 25 | 0.0 | 0.0 | 0.00 | 0.00 | 0.00 | 87 | 1011.2 | |
| 20260906122017 | 25 | 0.0 | 0.0 | 0.00 | 0.00 | 0.00 | 87 | 1011.1 | |
| 20260906121017 | 25 | 0.0 | 0.0 | 0.00 | 0.00 | 0.00 | 87 | 1011.1 | |
| 20260906120017 | 25 | 0.0 | 0.0 | 0.00 | 0.00 | 0.00 | 86 | 1011.0 | |
| 20260906115017 | 26 | 0.0 | 0.0 | 0.00 | 0.00 | 0.00 | 86 | 1010.9 | |
| 20260906114017 | 26 | 0.0 | 0.0 | 0.00 | 0.00 | 0.00 | 86 | 1010.9 | |
| 20260906113017 | 26 | 0.0 | 0.0 | 0.00 | 0.00 | 0.00 | 85 | 1010.8 | |
| 20260906112017 | 26 | 0.0 | 0.0 | 0.00 | 0.00 | 0.00 | 85 | 1010.8 | |
| 20260906111037 | 26 | 0.0 | 0.0 | 0.00 | 0.00 | 0.00 | 85 | 1010.8 | |
| 20260906110017 | 26 | 0.0 | 0.0 | 0.00 | 0.00 | 0.00 | 85 | 1010.6 | |
| 20260906105017 | 26 | 0.0 | 0.0 | 0.00 | 0.00 | 0.00 | 85 | 1010.5 | |
| 20260906104017 | 26 | 0.0 | 0.0 | 0.00 | 0.00 | 0.00 | 84 | 1010.5 | |
| 20260906103017 | 26 | 0.0 | 0.0 | 0.00 | 0.00 | 0.00 | 83 | 1010.5 | |
| 20260906102017 | 26 | 0.0 | 0.0 | 0.00 | 0.00 | 0.00 | 83 | 1010.4 | |
| 20260906101017 | 26 | 0.0 | 0.0 | 0.00 | 0.00 | 0.00 | 82 | 1010.3 | |
| 20260906100017 | 26 | 0.0 | 0.0 | 0.00 | 0.00 | 0.00 | 82 | 1010.3 | |
| 20260906095017 | 27 | 0.0 | 0.0 | 0.00 | 0.00 | 0.00 | 82 | 1010.3 | |
| 20260906094017 | 27 | 0.0 | 0.0 | 0.00 | 0.00 | 0.00 | 81 | 1010.3 | |
| 20260906093017 | 27 | 0.0 | 0.0 | 0.00 | 0.00 | 0.00 | 81 | 1010.1 | |
| 20260906092017 | 27 | 0.0 | 0.0 | 0.00 | 0.00 | 0.00 | 80 | 1010.1 | |
| 20260906091017 | 27 | 0.0 | 1.6 | 0.00 | 0.00 | 0.00 | 80 | 1009.9 | |
| 20260906090017 | 27 | 0.0 | 3.2 | 0.00 | 0.00 | 0.00 | 80 | 1009.9 | |
| 20260906085017 | 27 | 0.0 | 4.8 | 0.00 | 0.00 | 0.00 | 80 | 1009.9 | |
| 20260906084017 | 27 | 180 | 1.6 | 4.8 | 0.00 | 0.00 | 0.00 | 79 | 1009.9 |
| 20260906083017 | 27 | 180 | 1.6 | 8.0 | 0.00 | 0.00 | 0.00 | 79 | 1009.8 |
| 20260906082017 | 27 | 0.0 | 1.6 | 0.00 | 0.00 | 0.00 | 79 | 1009.7 | |
| 20260906081017 | 27 | 0.0 | 3.2 | 0.00 | 0.00 | 0.00 | 78 | 1009.8 | |
| 20260906080017 | 27 | 0.0 | 0.0 | 0.00 | 0.00 | 0.00 | 78 | 1010.0 | |
| 20260906075037 | 28 | 0.0 | 1.6 | 0.00 | 0.00 | 0.00 | 77 | 1010.0 | |
| 20260906074017 | 28 | 0.0 | 1.6 | 0.00 | 0.00 | 0.00 | 77 | 1010.0 | |
| 20260906073017 | 28 | 0.0 | 1.6 | 0.00 | 0.00 | 0.00 | 76 | 1009.8 | |
| 20260906072017 | 28 | 0.0 | 1.6 | 0.00 | 0.00 | 0.00 | 75 | 1009.9 | |
| 20260906071017 | 28 | 0.0 | 0.0 | 0.00 | 0.00 | 0.00 | 75 | 1010.1 | |
| 20260906070017 | 28 | 0.0 | 1.6 | 0.00 | 0.00 | 0.00 | 74 | 1010.2 | |
| 20260906065017 | 28 | 0.0 | 6.4 | 0.00 | 0.00 | 0.00 | 74 | 1010.2 | |
| 20260906064017 | 28 | 0.0 | 3.2 | 0.00 | 0.00 | 0.00 | 73 | 1010.3 | |
| 20260906063017 | 28 | 180 | 1.6 | 3.2 | 0.00 | 0.00 | 0.00 | 72 | 1010.2 |
| 20260906062017 | 28 | 180 | 1.6 | 4.8 | 0.00 | 0.00 | 0.00 | 71 | 1010.1 |
| 20260906061017 | 29 | 0.0 | 1.6 | 0.00 | 0.00 | 0.00 | 71 | 1010.2 | |
| 20260906060017 | 29 | 0.0 | 4.8 | 0.00 | 0.00 | 0.00 | 70 | 1010.2 | |
| 20260906055017 | 29 | 0.0 | 3.2 | 0.00 | 0.00 | 0.00 | 70 | 1010.2 | |
| 20260906054017 | 29 | 180 | 1.6 | 4.8 | 0.00 | 0.00 | 0.00 | 69 | 1010.2 |
| 20260906053017 | 29 | 180 | 1.6 | 6.4 | 0.00 | 0.00 | 0.00 | 69 | 1010.0 |
| 20260906052017 | 30 | 180 | 1.6 | 8.0 | 0.00 | 0.00 | 0.00 | 69 | 1009.9 |
| 20260906051017 | 30 | 158 | 3.2 | 8.0 | 0.00 | 0.00 | 0.00 | 69 | 1010.1 |
| 20260906050037 | 30 | 135 | 1.6 | 3.2 | 0.00 | 0.00 | 0.00 | 69 | 1010.1 |
| 20260906045016 | 30 | 0.0 | 3.2 | 0.00 | 0.00 | 0.00 | 68 | 1010.1 | |
| 20260906044015 | 30 | 135 | 1.6 | 6.4 | 0.00 | 0.00 | 0.00 | 68 | 1010.1 |
| 20260906043015 | 30 | 180 | 3.2 | 9.7 | 0.00 | 0.00 | 0.00 | 68 | 1010.1 |
| 20260906042016 | 30 | 180 | 3.2 | 9.7 | 0.00 | 0.00 | 0.00 | 67 | 1010.0 |
| 20260906041016 | 30 | 180 | 1.6 | 8.0 | 0.00 | 0.00 | 0.00 | 67 | 1010.0 |
| 20260906040016 | 30 | 180 | 1.6 | 4.8 | 0.00 | 0.00 | 0.00 | 66 | 1009.9 |
| 20260906035015 | 30 | 180 | 1.6 | 4.8 | 0.00 | 0.00 | 0.00 | 66 | 1010.0 |
| 20260906034015 | 30 | 180 | 1.6 | 8.0 | 0.00 | 0.00 | 0.00 | 66 | 1009.8 |
| 20260906033015 | 31 | 180 | 3.2 | 6.4 | 0.00 | 0.00 | 0.00 | 65 | 1009.9 |
| 20260906032015 | 31 | 203 | 3.2 | 6.4 | 0.00 | 0.00 | 0.00 | 65 | 1009.9 |
| 20260906031016 | 31 | 203 | 1.6 | 6.4 | 0.00 | 0.00 | 0.00 | 64 | 1010.0 |
| 20260906030015 | 31 | 0.0 | 3.2 | 0.00 | 0.00 | 0.00 | 64 | 1010.0 | |
| 20260906025015 | 31 | 225 | 1.6 | 6.4 | 0.00 | 0.00 | 0.00 | 63 | 1009.9 |
| 20260906024016 | 31 | 225 | 1.6 | 6.4 | 0.00 | 0.00 | 0.00 | 63 | 1009.7 |
| 20260906023016 | 31 | 248 | 1.6 | 6.4 | 0.00 | 0.00 | 0.00 | 63 | 1009.5 |
| 20260906022015 | 31 | 203 | 3.2 | 9.7 | 0.00 | 0.00 | 0.00 | 62 | 1009.3 |
| 20260906021015 | 31 | 203 | 1.6 | 6.4 | 0.00 | 0.00 | 0.00 | 61 | 1009.2 |
| 20260906020016 | 31 | 225 | 3.2 | 8.0 | 0.00 | 0.00 | 0.00 | 61 | 1009.1 |
| 20260906015015 | 32 | 248 | 1.6 | 4.8 | 0.00 | 0.00 | 0.00 | 60 | 1009.1 |
| 20260906014035 | 32 | 225 | 1.6 | 6.4 | 0.00 | 0.00 | 0.00 | 58 | 1008.9 |
| 20260906013015 | 33 | 180 | 1.6 | 3.2 | 0.00 | 0.00 | 0.00 | 57 | 1008.7 |
| 20260906012015 | 33 | 203 | 3.2 | 12.9 | 0.00 | 0.00 | 0.00 | 55 | 1008.5 |
| 20260906011036 | 34 | 203 | 4.8 | 14.5 | 0.00 | 0.00 | 0.00 | 54 | 1008.3 |
| 20260906010015 | 35 | 270 | 1.6 | 4.8 | 0.00 | 0.00 | 0.00 | 52 | 1008.2 |
| 20260906005015 | 35 | 203 | 1.6 | 4.8 | 0.00 | 0.00 | 0.00 | 48 | 1008.0 |
| 20260906004015 | 35 | 0.0 | 1.6 | 0.00 | 0.00 | 0.00 | 48 | 1008.0 | |
| 20260906003035 | 35 | 0.0 | 3.2 | 0.00 | 0.00 | 0.00 | 46 | 1008.1 | |
| 20260906002035 | 36 | 0.0 | 3.2 | 0.00 | 0.00 | 0.00 | 46 | 1008.1 | |
| 20260906001015 | 36 | 203 | 1.6 | 4.8 | 0.00 | 0.00 | 0.00 | 45 | 1008.2 |
| 20260906000015 | 36 | 203 | 1.6 | 11.3 | 0.00 | 0.00 | 0.00 | 45 | 1008.1 |
| 20260905235015 | 37 | 203 | 1.6 | 3.2 | 0.00 | 0.00 | 0.00 | 44 | 1007.9 |
| 20260905234015 | 36 | 203 | 1.6 | 6.4 | 0.00 | 0.00 | 0.00 | 44 | 1007.8 |
| 20260905233015 | 36 | 203 | 1.6 | 3.2 | 0.00 | 0.00 | 0.00 | 44 | 1007.9 |
| 20260905232035 | 36 | 0.0 | 3.2 | 0.00 | 0.00 | 0.00 | 43 | 1007.9 |